Notices

What's New in latest Release from April 7th, 2021:

- Updated Glossary, including Speed of Maximum Gust, and Total Hourly Precipitation

- Updated national and regional climate services offices contacts and prices information

- Addition of station inventory lists for 1981-2010, 1971-2000, and 1961-1990 Normals.

If you haven't already, please take our survey and provide feedback about our website: https://eccc.sondage-survey.ca/f/LanguageSelection.aspx?s=442ca660-fcf1-47c0-95a9-59707d6fd709

Hourly Data Report for November 05, 2020

SHEARWATER RCS
NOVA SCOTIA
Current Station Operator: ECCC - MSC

44°37'47.000" N
63°30'48.000" W
24.00 m
8205092
71264
AAW

Download Data

Hourly Data (November 2020)
Hourly Data Report for November 5, 2020
TIME
LST
Temp Definition
°C
Dew Point Definition
°C
Rel Hum Definition
%
Precip. Amount Definition
mm

Wind Dir Definition
10's deg

Wind Spd Definition
km/h
Visibility Definition
km
Stn Press Definition
kPa
Hmdx Definition


Wind Chill Definition


Weather Definition


00:00 2.9 -4.9 56 0.0 19 6   103.42     LegendNANA
01:00 3.3 -5.0 54 0.0 19 8   103.43     LegendNANA
02:00 3.9 -3.0 60 0.0 18 11   103.36     LegendNANA
03:00 4.4 -1.3 67 0.0 18 13   103.32     LegendNANA
04:00 5.2 -0.2 68 0.0 18 16   103.31     LegendNANA
05:00 5.6 1.3 74 0.0 18 16   103.29     LegendNANA
06:00 6.0 2.5 78 0.0 17 21   103.26     LegendNANA
07:00 6.6 3.7 81 0.0 17 23   103.23     LegendNANA
08:00 7.5 4.6 82 0.0 16 24   103.21     LegendNANA
09:00 8.7 5.4 80 0.0 17 26   103.19     LegendNANA
10:00 9.2 6.1 81 0.0 17 27   103.13     LegendNANA
11:00 10.3 6.6 78 0.0 18 26   103.05     LegendNANA
12:00 10.7 7.0 78 0.0 18 23   102.98     LegendNANA
13:00 11.1 7.9 80 0.0 18 25   102.90     LegendNANA
14:00 11.3 8.4 82 0.0 19 27   102.85     LegendNANA
15:00 11.4 8.4 82 0.0 19 25   102.80     LegendNANA
16:00 11.4 8.6 83 0.0 19 22   102.74     LegendNANA
17:00 11.2 8.8 85 0.0 19 23   102.70     LegendNANA
18:00 11.4 8.9 85 0.0 20 25   102.68     LegendNANA
19:00 11.6 9.0 84 0.0 20 25   102.67     LegendNANA
20:00 11.6 9.2 85 0.0 20 22   102.62     LegendNANA
21:00 11.9 9.4 85 0.0 20 25   102.57     LegendNANA
22:00 12.1 9.7 85 0.0 20 23   102.55     LegendNANA
23:00 12.4 9.7 84 0.0 21 22   102.47     LegendNANA

Notes on Data Quality.

Legend

  • E = Estimated
  • M = Missing
  • NA = Not Available*
  • [empty] = Indicates an unobserved value
Date modified: